Location: Peterborough
(44.3091°N, 78.3197°W)
Time: 16:49:41
(UTC-04:00)

Transit 4A - Pass Details

Date: 30 March 2023
Orbit: 864 x 980 km, 66.8° (Epoch: 04 June)

Event Time Altitude Azimuth Distance (km) Brightness Sun altitude
Rises 13:14:46 0° 333° (NNW) 3,547 10.6 49.5°
Reaches altitude 10° 13:17:58 10° 350° (N) 2,625 10.0 49.6°
Maximum altitude 13:22:26 21° 37° (NE) 1,997 9.6 49.5°
Drops below altitude 10° 13:26:58 10° 84° (E) 2,676 10.4 49.5°
Sets 13:30:16 0° 100° (E) 3,638 11.0 49.5°
